Location: Dumpton Point
(51.3500°N, 1.4433°E)
Time: 08:36:08
(UTC+00:00)

Cosmos 1140 Rocket - Pass Details

Date: 09 April 2020
Orbit: 745 x 767 km, 74.1° (Epoch: 06 June)

Event Time Altitude Azimuth Distance (km) Brightness Sun altitude
Rises 20:05:26 0° 203° (SSW) 3,202 6.6 -12.9°
Reaches altitude 10° 20:07:48 10° 204° (SSW) 2,278 5.9 -13.2°
Maximum altitude 20:12:58 88° 292° (WNW) 760 3.5 -13.9°
Drops below altitude 10° 20:18:09 10° 24° (NNE) 2,280 6.1 -14.6°
Sets 20:20:31 0° 25° (NNE) 3,205 6.8 -14.9°
